Location: Ambak�l�
(14.9029°N, 3.0493°W)
Time: 22:14:57
(UTC+00:00)

Daily predictions for brighter satellites

Satellite Brightness Start Highest point End
(mag) Time Altitude Azimuth Time Altitude Azimuth Time Altitude Azimuth
CENTAUR R/B 2.4 18:58:33 10° S 19:03:24 43° ESE 19:08:47 10° NE
ASTRO E2 3.2 19:02:22 10° SW 19:06:04 39° SSE 19:09:47 10° ENE
PSLV R/B 3.9 18:56:45 10° WSW 19:06:57 67° S 19:09:47 10° E
MOS 1-B Rocket 4.2 19:02:37 10° NNE 19:08:07 48° ESE 19:14:14 10° S
BREEZE-M DEB (TANK) 2.1 19:04:59 10° NW 19:08:46 74° SW 19:10:52 10° SE
Cosmos 1703 Rocket 4.0 19:05:31 10° S 19:09:57 71° W 19:14:25 10° N
PSLV R/B 4.3 19:07:20 10° N 19:11:22 68° WNW 19:15:22 10° SSW
GPS 2-12 Rocket1 3.0 19:07:07 10° W 19:11:31 72° SSW 19:16:00 10° ESE
Cosmos 1975 2.8 19:08:11 10° N 19:12:15 80° E 19:16:19 10° S
Cosmos 332 Rocket 3.9 19:08:23 10° SSW 19:13:14 85° W 19:18:03 10° NNE
Hubble Space Telescope 3.1 19:11:35 10° NNW 19:14:14 16° NNE 19:16:53 10° NE
Meteor 1-13 Rocket 4.2 19:14:03 10° S 19:19:33 86° E 19:25:08 10° N
DMSP B5D2-2 4.3 19:16:28 10° N 19:21:41 77° WNW 19:26:53 10° SSW
Cosmos 2366 rocket 4.1 19:18:15 10° N 19:24:33 65° E 19:30:49 10° SSE
Cosmos 1269 Rocket 4.1 19:20:17 10° NNW 19:25:33 82° WSW 19:30:49 10° S
CRYOSAT 2 4.3 19:21:42 10° SSE 19:26:31 71° E 19:31:21 10° N
Cosmos 1782 Rocket 4.2 19:27:08 10° NNE 19:31:03 33° E 19:34:13 14° SE
Cosmos 2219 3.9 19:26:29 10° N 19:31:45 37° ENE 19:35:52 15° SE
CSL-04 Debris 4.3 19:29:00 10° SSE 19:34:13 53° ENE 19:39:26 10° N
SL-08 RB Rocket 3.6 19:30:59 10° SSE 19:35:26 87° ENE 19:39:55 10° N
Cosmos 2297 Rocket 2.4 19:32:08 10° N 19:37:37 52° ENE 19:42:04 16° SE
Cosmos 2227 Rocket 2.8 19:35:48 10° N 19:41:03 39° ENE 19:44:29 20° SE
Atlas Centaur 2 1.6 19:37:28 10° NW 19:41:15 59° NNE 19:44:04 21° ESE
Meteor 1-23 Rocket 4.2 19:37:27 10° S 19:43:13 74° E 19:48:56 10° N
IUS-7 SRM-1 3.7 19:33:39 10° WNW 19:45:45 69° NNE 19:47:42 24° E
OBJECT-B 2.2 19:46:39 21° ENE 19:46:39 21° ENE 19:49:08 10° NNE
Meteor 1-12 Rocket 4.4 19:43:45 10° N 19:49:14 52° E 19:53:22 18° SSE
CZ-4 R/B 3.3 19:46:10 10° SSW 19:49:28 27° W 19:52:44 10° NW
Helios 1A Rocket 3.6 19:47:50 25° ESE 19:49:29 36° ENE 19:53:13 10° N
SEDSat Delta rocket 3.3 19:46:40 10° WNW 19:51:29 85° NNE 19:54:32 26° ESE
Cosmos 2056 Rocket 3.3 19:46:57 10° S 19:52:03 79° ESE 19:57:14 10° NNE
Cosmos 2251 Rocket 4.2 19:47:30 10° N 19:52:21 37° ENE 19:54:30 26° ESE
USA 186 2.2 19:54:26 32° NE 19:54:26 32° NE 19:56:23 10° N
YAOGAN 1 4.4 19:52:54 10° SSW 19:56:41 30° W 20:00:27 10° NW
Cosmos 1842 3.6 20:01:04 40° ESE 20:01:31 41° E 20:05:13 10° NNE
NOSS 3-2 (C) 3.7 19:58:01 10° SW 20:03:11 57° WNW 20:08:40 10° NNE
Cosmos 292 Rocket 4.3 20:02:42 34° ESE 20:03:17 35° E 20:07:40 10° NE
Cosmos 2285 Rocket 4.0 20:00:18 10° S 20:06:34 58° E 20:12:51 10° NNE
SL-08 R/B 4.5 20:00:12 10° N 20:06:40 84° E 20:12:07 15° S
Cosmos 2084 3.7 20:02:12 10° NNW 20:06:40 57° ENE 20:07:55 41° ESE
USA 234 3.8 20:02:04 15° SSE 20:07:17 51° SW 20:13:37 10° NW
Okean-O 4.3 20:05:15 10° SSW 20:09:09 31° W 20:13:04 10° NW
SL-16 R/B 2.2 20:03:51 10° S 20:09:22 57° ESE 20:14:54 10° NNE
Yuri Rocket 4.1 20:03:46 10° WSW 20:09:30 84° NNW 20:17:42 10° ENE
Cosmos 1420 Rocket 3.8 20:06:39 10° S 20:11:47 75° ESE 20:16:56 10° NNE
Cosmos 2360 Rocket 4.2 20:16:10 12° ENE 20:16:10 12° ENE 20:16:42 10° NE
MetOp-A 4.1 20:09:06 21° S 20:12:43 85° WSW 20:18:04 10° NNW
Cosmos 2322 Rocket 2.4 20:10:51 31° SSE 20:12:59 44° ESE 20:18:21 10° NNE
SJ-6B 2.9 20:13:43 54° ESE 20:14:21 63° ENE 20:18:24 10° N
Cosmos 1378 Rocket 3.7 20:16:01 50° E 20:16:01 50° E 20:20:06 10° NNE
ARIANE 5 R/B 4.1 20:15:58 10° WSW 20:20:33 16° SSW 20:21:08 16° SSW
Cosmos 2082 4.1 20:15:13 10° N 20:20:37 43° ENE 20:21:26 41° E
Cosmos 220 Rocket 4.3 20:18:29 10° SSW 20:22:49 67° WNW 20:27:06 10° N
Cosmos 1339 Rocket 4.4 20:28:49 24° S 20:32:47 87° E 20:38:59 10° N
NATO 3D Rocket 4.4 20:29:34 10° WNW 20:33:56 38° N 20:35:42 28° NE
Kakehashi 4.2 20:24:48 10° WNW 20:35:56 58° SW 20:37:49 42° SSE
Okean 2 4.0 20:37:17 47° NNE 20:37:17 47° NNE 20:40:15 10° N
Resurs 01 Rocket 3.4 20:40:15 21° NNE 20:40:15 21° NNE 20:42:04 10° NNE
Okean 2 Rocket 3.4 20:41:54 10° N 20:45:40 62° N 20:45:40 62° N
ASTRO E2 4.3 20:42:51 10° W 20:46:26 32° NNW 20:46:58 31° N
Ariane Rocket 2.9 20:47:18 75° NNE 20:47:18 75° NNE 20:52:04 10° N
USA 215 3.1 20:46:27 10° NE 20:53:00 86° SE 20:59:33 10° SW
Meteor 1-22 Rocket 4.3 20:48:49 10° N 20:53:48 62° NE 20:53:48 62° NE
Hubble Space Telescope 2.3 20:51:52 10° NW 20:54:30 33° NNW 20:54:30 33° NNW
Aurora 2 Rocket 4.0 20:46:15 10° WNW 20:56:16 79° NNE 20:58:02 59° E
Cosmos 2263 Rocket 3.6 21:14:48 10° N 21:17:47 29° NNE 21:17:47 29° NNE
Cosmos 2227 Rocket 4.5 21:21:32 10° WNW 21:24:41 15° WSW 21:26:21 14° WSW
Atlas Centaur 2 4.4 21:26:22 10° W 21:26:39 11° W 21:26:39 11° W
Cosmos 839 Rocket 4.5 21:23:03 10° NNW 21:30:40 73° N 21:30:40 73° N
CZ-3B R/B 4.4 21:22:53 10° WNW 21:46:28 79° SSW 21:48:22 71° SSE
Cosmos 2360 Rocket 4.1 21:57:48 26° NW 21:57:48 26° NW 22:01:07 10° N
ATLAS 3B R/B 4.2 22:05:46 27° N 22:05:46 27° N 22:08:46 10° N
